Home > Weather > Buchs > Past weeks

Flag for Switzerland Past Weather in Buchs, St. Gallen, Switzerland — Yesterday and Last 2 Weeks

Now
67 °F

Mild.


Feels Like: 67 °F
Forecast: 57 / 76 °F
Wind: 3 mph from South

Location: Vaduz

Current Time: Jul 31, 2016 at 5:49:49 AM

Latest Report: Jul 31, 2016 at 4:00 AM


Visibility: N/A

Pressure: 29.95 "Hg

Humidity: 68%

Dew Point: 56 °F

Location of BuchsLocation

Past Weather in Buchs — Graph

°F

Buchs Temperature Yesterday

Maximum temperature yesterday: 85 °F (at 4:00 PM)
Minimum temperature yesterday: 64 °F (at 1:00 AM)
Average temperature yesterday: 72 °F

High & Low Weather Summary for the Past Weeks

 TemperatureHumidityPressure
High88 °F (Jul 20, 5:00 PM)99% (Jul 26, 8:00 AM)30.39 "Hg (Jul 26, 8:00 AM)
Low47 °F (Jul 16, 5:00 AM)39% (Jul 16, 5:00 PM)29.85 "Hg (Jul 30, 4:00 PM)
Average70 °F71%30.07 "Hg
* Reported Jul 16 4:00 AM — Jul 31 4:00 AM, Buchs, Weather by CustomWeather, © 2016

Note: Actual official high and low records may vary slightly from our data, if they occured in-between our weather recording intervals... More about our weather records

Advertising

Buchs Weather History for the Previous 24 Hours

Scroll right to see more
 ConditionsComfort  
Time TempWeatherWind HumidityBarometerVisibility
4:00 AM
Sun, Jul 31
67 °FMild.3 mph68%29.95 "HgN/A
3:00 AM69 °FMild.8 mph63%29.93 "HgN/A
2:00 AM70 °FFog.7 mph61%29.92 "Hg4 mi
1:00 AM70 °FMild.7 mph61%29.93 "HgN/A
12:00 AM70 °FMild.7 mph63%29.93 "HgN/A
11:00 PM
Sat, Jul 30
71 °FFog.7 mph60%29.95 "Hg4 mi
10:00 PM71 °FMild.8 mph62%29.95 "HgN/A
9:00 PM72 °FMild.5 mph59%29.95 "HgN/A
8:00 PM73 °FFog.6 mph57%29.95 "Hg7 mi
7:00 PM72 °FMild.9 mph67%29.95 "HgN/A
6:00 PM74 °FMild.14 mph68%29.93 "HgN/A
5:00 PM80 °FScattered clouds.7 mph57%29.86 "Hg9 mi
4:00 PM85 °FWarm.5 mph47%29.85 "HgN/A
3:00 PM85 °FWarm.3 mph50%29.86 "HgN/A
2:00 PM84 °FPassing clouds.6 mph52%29.87 "Hg10 mi
1:00 PM81 °FWarm.3 mph54%29.88 "HgN/A
12:00 PM80 °FWarm.1 mph54%29.90 "HgN/A
11:00 AM76 °FFog.3 mph61%29.93 "Hg9 mi
10:00 AM73 °FMild.3 mph67%29.95 "HgN/A
9:00 AM70 °FMild.3 mph70%29.98 "HgN/A
8:00 AM66 °FFog.5 mph78%30.00 "Hg8 mi
7:00 AM65 °FMild.5 mph81%30.00 "HgN/A
6:00 AM66 °FMild.2 mph79%30.00 "HgN/A
5:00 AM67 °FFog.3 mph78%29.99 "Hg4 mi
Weather by CustomWeather, © 2016

See weather overviewHow to use our weather pages